Simultaneous Nadir Overpasses (SNOs) Predictions

Prediction of SNOs between METOP-B and NOAA-19 Satellite Orbit:

Table of predicted SNOs for the next 14.0 days since TLE Epoch: 2/25/2023
Index Date (METOP-B) Time (METOP-B) Lat,Lon (METOP-B) SZA (METOP-B ) Date (NOAA-19) Time (NOAA-19) Lat,Lon (NOAA-19) SZA (NOAA-19 ) Distance(km) Time Diff (sec)
1 03/01/2023 22:30:03 -80.92, 57.24 90.38 03/01/2023 22:28:52 -80.93, 57.21 90.40 0.87 71
2 03/01/2023 23:20:43 80.93,-135.30 89.63 03/01/2023 23:19:56 80.93,-135.18 89.62 2.21 47
3 03/02/2023 00:11:24 -80.93, 32.11 90.38 03/02/2023 00:10:50 -80.93, 32.23 90.38 2.10 34
4 03/02/2023 01:02:04 80.94,-160.43 89.63 03/02/2023 01:01:55 80.93,-160.53 89.61 1.99 9
5 03/02/2023 01:52:46 -80.93, 6.62 90.42 03/02/2023 01:52:50 -80.93, 6.50 90.43 2.16 4
6 03/02/2023 02:43:26 80.93, 174.08 89.58 03/02/2023 02:43:54 80.93, 174.12 89.59 0.72 28
7 03/02/2023 03:34:07 -80.94, -18.51 90.43 03/02/2023 03:34:48 -80.93, -18.48 90.41 0.81 41



Historial Predications of SNOs between METOP-B and NOAA-19
